Location: Москва
(55.7504°N, 37.6175°E)
Time: 20:55:20
(UTC+03:00)

Nauka - Pass Details

Date: 27 September 2021
Orbit: 417 x 423 km, 51.6° (Epoch: 26 October)

Event Time Altitude Azimuth Distance (km) Brightness Sun altitude
Rises 19:38:36 0° 265° (W) 2,366 ? -12.5°
Reaches altitude 10° 19:40:46 10° 257° (WSW) 1,502 ? -12.8°
Maximum altitude 19:43:56 39° 188° (S) 651 ? -13.2°
Enters shadow 19:45:33 23° 133° (SE) 952 ? -13.4°
